Regional Weather Roundup
Issued by NWS Sterling, VA

Home | Current Version | Previous Version | Text Only | Print | Product List | Glossary Off
Versions: 1 2 3 4 5 6 7 8 9 10 11 12 13 14 15 16 17 18 19 20 21 22 23 24 25 26 27 28 29 30 31 32 33 34 35 36 37 38 39 40 41 42 43 44 45 46 47 48 49 50

182
ASUS41 KLWX 211411
RWRLWX

REGIONAL WEATHER ROUNDUP
NATIONAL WEATHER SERVICE BALTIMORE MD/WASHINGTON DC
1000 AM EDT SAT OCT 21 2017

Note: "FAIR" indicates few or no clouds below 12,000 feet
with no significant weather and/or obstructions to visibility.
 TC=TEMPERATURE CELSIUS

 * =Non NWS site. Station does not report precipitation (e.g. rain,
    snow, etc.), thunder, or fog.

DCZ001-MDZ009-015-VAZ040>042-051-053>054-211500-
WASHINGTON METRO

CITY           SKY/WX    TMP DP  RH WIND       PRES   REMARKS
WASHINGTON NAT MOSUNNY   62  53  72 CALM      30.37R
DULLES         MOSUNNY   58  49  72 CALM      30.37R
ANDREWS AFB    SUNNY     65  47  53 N5        30.36R
FT BELVOIR     SUNNY     60  51  71 CALM      30.36R
QUANTICO       SUNNY     61  51  70 CALM      30.38R
COLLEGE PARK*  SUNNY     58  49  72 CALM      30.36R
LEESBURG*      SUNNY     59  50  72 CALM      30.38S
MANASSAS*      SUNNY     55  48  77 CALM      30.37S
GAITHERSBURG*  SUNNY     65  50  58 CALM      30.38R

$$

MDZ006>007-011-014-211500-
BALTIMORE METRO

CITY           SKY/WX    TMP DP  RH WIND       PRES   REMARKS
BWI AIRPORT    MOSUNNY   63  49  60 CALM      30.36S
MD SCIENCE CTR   N/A     64  47  53 MISG      30.37R
MARTIN STATE   SUNNY     61  54  77 CALM      30.38R
ANNAPOLIS      SUNNY     65  54  67 CALM      30.36S
FORT MEADE*    SUNNY     54  52  94 CALM      30.39S

$$

MDZ012-015-019>023-211500-
MARYLAND EASTERN SHORE

CITY           SKY/WX    TMP DP  RH WIND       PRES   REMARKS
OCEAN CITY     SUNNY     66  55  67 N6        30.36R
SALISBURY      SUNNY     63  52  67 CALM      30.36R
CAMBRIDGE*     SUNNY     63  54  72 CALM      30.36R
EASTON*        SUNNY     66  46  48 CALM      30.39R

$$

MDZ017>025-211500-
SOUTHERN MARYLAND

CITY           SKY/WX    TMP DP  RH WIND       PRES   REMARKS
PATUXENT RIVER MOSUNNY   65  57  75 NW5       30.36R
ST INIGOES     SUNNY     67  57  70 CALM      30.35R
LEONARDTOWN*   NOT AVBL

$$

MDZ003>005-211500-
NORTH CENTRAL MARYLAND

CITY           SKY/WX    TMP DP  RH WIND       PRES   REMARKS
FREDERICK*     SUNNY     54  48  82 CALM      30.40R
HAGERSTOWN APT   N/A     61  46  59 MISG        N/A
WESTMINSTER*   SUNNY     61  46  59 CALM      30.37R

$$

MDZ501>502-211500-
WESTERN MARYLAND

CITY           SKY/WX    TMP DP  RH WIND       PRES   REMARKS
OAKLAND*       SUNNY     61  43  51 SE9       30.35R
CUMBERLAND*    SUNNY     50  45  81 CALM      30.42R

$$

VAZ025>031-211500-
SHENANDOAH VALLEY

CITY           SKY/WX    TMP DP  RH WIND       PRES   REMARKS
WINCHESTER*    SUNNY     54  45  71 CALM      30.37S
FRONT ROYAL*   SUNNY     55  48  76 CALM      30.36S
LURAY*         SUNNY     54  50  87 CALM      30.37S
NEW MARKET*    SUNNY     54  46  75 CALM      30.37S
STAUNTON*      SUNNY     54  49  83 CALM      30.40S
WAYNESBORO*    SUNNY     57  52  84 CALM      30.38R

$$

WVZ021-048>050-054>055-211500-
EASTERN WEST VIRGINIA PANHANDLE

CITY           SKY/WX    TMP DP  RH WIND       PRES   REMARKS
MARTINSBURG    SUNNY     53  45  74 CALM      30.37R
PETERSBURG*    SUNNY     52  46  80 CALM      30.37F

$$

VAZ036>039-050-211500-
CENTRAL FOOTHILLS

CITY           SKY/WX    TMP DP  RH WIND       PRES   REMARKS
CHARLOTTESVILL SUNNY     62  51  67 CALM      30.36R
CULPEPER*      SUNNY     58  49  71 CALM      30.38R
ORANGE*        SUNNY     61  52  72 CALM      30.36R
GORDONSVILLE*  SUNNY     62  53  72 CALM      30.36R
WARRENTON*     SUNNY     58  47  65 CALM      30.36S

$$

VAZ055>057-211500-
NORTH AND CENTRAL PIEDMONT

CITY           SKY/WX    TMP DP  RH WIND       PRES   REMARKS
FREDERICKSBRG* SUNNY     58  52  78 CALM      30.35S
STAFFORD*      SUNNY     59  53  80 CALM      30.40S

$$

NCZ024-NYZ072-PAZ021-071-VAZ022-071-211500-
OTHER REGIONAL OBSERVATIONS

CITY           SKY/WX    TMP DP  RH WIND       PRES   REMARKS
NEW YORK CITY  SUNNY     64  37  36 CALM      30.36S
PHILADELPHIA   MOSUNNY   61  42  49 SW3       30.37R
PITTSBURGH     CLOUDY    53  47  79 CALM      30.31R
ROANOKE        SUNNY     58  52  80 CALM      30.40R
RICHMOND       MOSUNNY   65  51  60 NE3       30.35R
RALEIGH        MOSUNNY   64  55  72 VRB5      30.35R

$$

ANZ530>537-211500-
MARINE OBSERVATIONS

STATION/POSITION TIME  TEMP    WIND        PRES
                       AIR SEA DIR/SP/G
                 (UTC) (F)     (DEG/KT/KT) (MB)
THOMAS PT LIGHT  1400   62 67   30/  5/  6   N/A
BALT KEY BRIDGE  1342   60     340/  2/  3 1028.2R
COVE POINT       1342   65      20/  6/  8 1028.6R
LEWISETTA        1342   63 65  310/  2/  3 1027.7R
SOLOMONS ISLAND  1342   63 69  320/  3/  4 1027.6R
PINEY POINT      1336          330/  4/  4   N/A

$$





USA.gov is the U.S. government's official web portal to all federal, state and local government web resources and services.